This is the latest recevied weather packets stored in our database for station/object KA7EII-13. If no packets are shown the sender has not sent any weather packets the latest 10 day(s).
| Time | Temp. | Humidity | Pressure | Rain* | Wind** | Luminosity | Snow |
|---|---|---|---|---|---|---|---|
| 1777566565 | 11.67° C | 42% | 1111.4 hPa | 0 mm | - | 615 W/m² | - |
| 1777566262 | 11.11° C | 44% | 1111.3 hPa | 0 mm | - | 617 W/m² | - |
| 1777565959 | 10.56° C | 43% | 1111.2 hPa | 0 mm | - | 613 W/m² | - |
| 1777565654 | 11.11° C | 45% | 1111.2 hPa | 0 mm | - | 577 W/m² | - |
| 1777565351 | 10.56° C | 46% | 1111.5 hPa | 0 mm | - | 576 W/m² | - |
| 1777565047 | 10.56° C | 47% | 1111.4 hPa | 0 mm | - | 559 W/m² | - |
| 1777564743 | 10° C | 49% | 1111.6 hPa | 0 mm | - | 537 W/m² | - |
| 1777564438 | 10° C | 50% | 1111.6 hPa | 0 mm | - | 491 W/m² | - |
| 1777564134 | 9.44° C | 51% | 1111.5 hPa | 0 mm | - | 471 W/m² | - |
| 1777563830 | 8.89° C | 52% | 1111.6 hPa | 0 mm | - | 455 W/m² | - |
| 1777563527 | 8.89° C | 53% | 1111.7 hPa | 0 mm | - | 431 W/m² | - |
| 1777563226 | 8.33° C | 55% | 1111.7 hPa | 0 mm | - | 435 W/m² | - |
| 1777562923 | 8.33° C | 55% | 1111.6 hPa | 0 mm | - | 377 W/m² | - |
| 1777562619 | 7.78° C | 56% | 1111.5 hPa | 0 mm | - | 354 W/m² | - |
| 1777562318 | 7.78° C | 57% | 1111.7 hPa | 0 mm | - | 342 W/m² | - |
| 1777562014 | 7.22° C | 58% | 1111.8 hPa | 0 mm | - | 324 W/m² | - |
| 1777561712 | 6.67° C | 60% | 1111.8 hPa | 0 mm | - | 318 W/m² | - |
| 1777561407 | 6.11° C | 61% | 1111.7 hPa | 0 mm | - | 330 W/m² | - |
| 1777561103 | 6.11° C | 63% | 1111.8 hPa | 0 mm | - | 336 W/m² | - |
| 1777560798 | 6.67° C | 62% | 1111.7 hPa | 0 mm | - | 314 W/m² | - |
| 1777560496 | 5.56° C | 64% | 1111.8 hPa | 0 mm | - | 298 W/m² | - |
| 1777560193 | 5.56° C | 64% | 1111.7 hPa | 0 mm | - | 272 W/m² | - |
| 1777559890 | 5° C | 64% | 1112 hPa | 0 mm | - | 250 W/m² | - |
| 1777559585 | 5° C | 67% | 1111.8 hPa | 0 mm | - | 229 W/m² | - |
| 1777559284 | 4.44° C | 66% | 1111.8 hPa | 0 mm | - | 207 W/m² | - |
* Rain latest hour (hover to see other rain measurements)
** Current wind speed in m/s (hover to see current wind gust speed)